Regional Weather Roundup
Issued by NWS Green Bay, WI

Home | Current Version | Previous Version | Text Only | Print | Product List | Glossary On
Versions: 1 2 3 4 5 6 7 8 9 10 11 12 13 14 15 16 17 18 19 20 21 22 23 24 25 26 27 28 29 30 31 32 33 34 35 36 37 38 39 40 41 42 43 44 45 46 47 48 49 50
000
ASUS43 KGRB 300800
RWRGRB

NORTH-CENTRAL AND NORTHEAST WISCONSIN REGIONAL WEATHER ROUNDUP
NATIONAL WEATHER SERVICE GREEN BAY WI
300 AM CDT TUE JUN 30 2015

WIZ005-009-010>012-018-019-300900-
NORTH CENTRAL WISCONSIN

CITY           SKY/WX    TMP DP  RH WIND       PRES   REMARKS
IRONWOOD       CLOUDY    55  55 100 N7        29.84S
MANITOWISH WTR NOT AVBL
ARBOR VITAE    NOT AVBL
EAGLE RIVER    NOT AVBL
LAND O LAKES   NOT AVBL
RHINELANDER    MOCLDY    59  57  93 N3        29.83S
PHILLIPS       NOT AVBL
ANTIGO         NOT AVBL
TOMAHAWK       NOT AVBL
MERRILL        NOT AVBL
$$

WIZ013-073-300900-
NORTHEAST WISCONSIN

CITY           SKY/WX    TMP DP  RH WIND       PRES   REMARKS
IRON MOUNTAIN  CLOUDY    61  59  93 NW6       29.78S
MARINETTE      CLOUDY    63  57  82 NE6       29.75F
$$

WIZ017-030-035>037-045-300900-
CENTRAL WISCONSIN

CITY           SKY/WX    TMP DP  RH WIND       PRES   REMARKS
MEDFORD        NOT AVBL
WAUSAU         CLOUDY    61  59  93 N8        29.79F
MOSINEE        NOT AVBL
MARSHFIELD     CLEAR     58  55  90 NW6       29.81S FOG
WISC RAPIDS    CLEAR     56  54  93 W3        29.81S FOG
STEVENS POINT  NOT AVBL
WAUPACA        NOT AVBL
SHAWANO        NOT AVBL
CLINTONVILLE   NOT AVBL
$$

WIZ038-039-048-051-300900-
FOX VALLEY

CITY           SKY/WX    TMP DP  RH WIND       PRES   REMARKS
NWS GREEN BAY  CLOUDY    62  61  96 NW8       29.76S
APPLETON       NOT AVBL
OSHKOSH        CLEAR     60  57  89 W6        29.77S
FOND DU LAC    CLEAR     60  58  92 W6        29.77F
$$

WIZ022-050-052-300900-
EAST CENTRAL WISCONSIN

CITY           SKY/WX    TMP DP  RH WIND       PRES   REMARKS
STURGEON BAY   CLOUDY    61  57  88 E3        29.77F VSB 1/2
MANITOWOC      MOCLDY    63  61  94 MISG      29.75S FOG
SHEBOYGAN      PTCLDY    61  58  90 W8        29.75F
$$

LMZ563-521-522-541>543-300900-
LAKESHORE

STATION/POSITION TIME  TEMP    WIND        PRES    VSBY  WAVE
                       AIR SEA DIR/SP/G                  HT/PER
                 (UTC) (F)     (DEG/KT/KT) (MB)    (MI)  (FT/S)
SHEBOYGAN LKSHOR 0700   62     220/  6/  6 1008.1F
KEWAUNEE LKSHORE 0700   59     180/  6/  8 1006.8F
ALGOMA MARINA    0710             CALM       N/A
NORTHPORT PIER   0700   61     180/  4/  6 1008.1S
N MID LAKE BUOY  0650   55 53  200/ 10/ 12 1008.3F         1
S GREEN BAY BUOY 0700   67 71  330/  2/  4 1008.7R
CHAMBERS ISLAND  0700   65      20/  8/  9 1008.1R
MENOMINEE LKSHOR 0700   63     350/  8/ 10 1008.5R
$$



USA.gov is the U.S. government's official web portal to all federal, state and local government web resources and services.